Regional Weather Roundup
Issued by NWS

Home | Current Version | Previous Version | Text Only | Print | Product List | Glossary On
Versions: 1 2 3 4 5 6 7 8 9 10 11 12 13 14 15 16 17 18 19 20 21 22 23 24 25 26 27 28 29 30 31 32 33 34 35 36 37 38 39 40 41 42 43 44 45 46 47 48 49 50
000
ASUS42 KFFC 262003
RWRGA
WEATHER ROUNDUP FOR GEORGIA
NATIONAL WEATHER SERVICE PEACHTREE CITY GA
400 PM EDT THU MAY 26 2016

NOTE: "FAIR" INDICATES FEW OR NO CLOUDS BELOW 12,000 FEET WITH NO
SIGNIFICANT WEATHER AND/OR OBSTRUCTIONS TO VISIBILITY.

* = USE WITH CAUTION. THE STATIONS MARKED WITH AN ASTERISK MAY NOT
REPORT WEATHER SUCH AS PRECIPITATION, FOG, OR THUNDER AND ARE NOT
QUALITY CONTROLLED BY NWS.

THE REMARK "TC" DENOTES TEMPERATURE READING IN DEGREES CELSIUS.

GAZ001>058-262100-
NORTH GEORGIA

CITY           SKY/WX    TMP DP  RH WIND       PRES   REMARKS
ATLANTA        PTSUNNY   87  60  40 S9        30.11F
ATHENS         CLOUDY    87  65  47 VRB7      30.12F
CHAMBLEE       FAIR      87  60  40 VRB6      30.12F
ROME           PTSUNNY   90  60  36 VRB3      30.08F
WEST ATLANTA   FAIR      87  59  38 MISG      30.10F
GAINESVILLE    FAIR      85  58  39 W9        30.15F
CARTERSVILLE   FAIR      88  60  38 VRB5      30.10F


CITY           SKY/WX    TMP DP  RH WIND       PRES   REMARKS
DALTON*        FAIR      86  59  39 S6        30.11F
LAWRENCEVILLE* MOSUNNY   84  61  45 CALM      30.14F
CANTON*        FAIR      86  45  23 S5        30.15S
BLAIRSVILLE*     N/A    N/A N/A N/A MISG      30.17F
$$

GAZ059>098-102>109-262100-
CENTRAL GEORGIA

CITY           SKY/WX    TMP DP  RH WIND       PRES   REMARKS
AUGUSTA-BUSH   FAIR      89  60  37 VRB5      30.10F
AUGUSTA-DANIEL PTSUNNY   87  60  40 VRB6      30.12F
COLUMBUS       FAIR      87  61  41 S10       30.10F HAZE
MACON          FAIR      87  63  44 S6        30.11F


CITY           SKY/WX    TMP DP  RH WIND       PRES   REMARKS
LAGRANGE*      FAIR      90  66  45 S8        30.10F HX  93
SYLVANIA*      FAIR      88  63  43 S6        30.15F
MILLEDGEVILLE* PTSUNNY   82  66  57 CALM      30.11F
$$

GAZ099>101-110>166-262100-
SOUTH GEORGIA

CITY           SKY/WX    TMP DP  RH WIND       PRES   REMARKS
SAVANNAH       FAIR      86  57  37 SE9G21    30.14F
VALDOSTA       CLOUDY    86  60  41 SE5       30.12F
ALMA           CLOUDY    84  62  47 E6        30.12F
ST SIMONS      FAIR      81  64  56 SE9       30.16F
ALBANY         CLOUDY    87  59  38 VRB5      30.12F
BRUNSWICK      FAIR      88  55  33 E10G17    30.16F


CITY           SKY/WX    TMP DP  RH WIND       PRES   REMARKS
BAINBRIDGE*    FAIR      90  64  43 S3        30.11F HX  91
MOULTRIE*      PTSUNNY   86  59  39 SE6       30.13F
VIDALIA*       PTSUNNY   88  59  37 E3        30.13F
WAYCROSS*      PTSUNNY   84  61  45 SE9       30.12F
DOUGLAS*       PTSUNNY   90  59  35 SE5       30.14F
$$



USA.gov is the U.S. government's official web portal to all federal, state and local government web resources and services.